TimeEET,TemperatureF,Dew PointF,Humidity,Sea Level PressureIn,VisibilityMPH,Wind Direction,Wind SpeedMPH,Gust SpeedMPH,PrecipitationIn,Events,Conditions,WindDirDegrees,DateUTC
12:00 AM,75.2,24.8,15,29.92,-9999.0,SE,4.6,-,N/A,,Clear,140,2013-03-03 22:00:00
1:00 AM,71.6,28.4,20,29.89,-9999.0,ESE,5.8,-,N/A,,Clear,120,2013-03-03 23:00:00
2:00 AM,72,32,13,29.88,6,Calm,Calm,,,,,,2013-03-04 00:00:00
2:00 AM,71.6,32.0,23,29.89,-9999.0,Calm,Calm,-,N/A,,Clear,0,2013-03-04 00:00:00
3:00 AM,69.8,26.6,20,29.89,-9999.0,Calm,Calm,-,N/A,,Clear,0,2013-03-04 01:00:00
4:00 AM,69.8,32.0,25,29.86,-9999.0,SSE,4.6,-,N/A,,Clear,150,2013-03-04 02:00:00
5:00 AM,69.8,35.6,28,29.89,-9999.0,West,3.5,-,N/A,,Clear,270,2013-03-04 03:00:00
6:00 AM,68.0,30.2,24,29.92,-9999.0,NW,5.8,-,N/A,,Clear,320,2013-03-04 04:00:00
7:00 AM,68.0,26.6,21,29.95,-9999.0,Calm,Calm,-,N/A,,Clear,0,2013-03-04 05:00:00
8:00 AM,74,26,8,29.95,6,North,4.6,,,,,0,2013-03-04 06:00:00
8:00 AM,75.2,26.6,17,29.95,-9999.0,North,4.6,-,N/A,,Clear,360,2013-03-04 06:00:00
9:00 AM,77.0,28.4,17,29.98,-9999.0,North,8.1,-,N/A,,Clear,360,2013-03-04 07:00:00
10:00 AM,84.2,28.4,13,29.98,-9999.0,North,11.5,-,N/A,,Clear,360,2013-03-04 08:00:00
11:00 AM,86.0,32.0,14,29.95,-9999.0,North,8.1,-,N/A,,Clear,10,2013-03-04 09:00:00
12:00 PM,89.6,35.6,15,29.95,-9999.0,North,9.2,-,N/A,,Clear,360,2013-03-04 10:00:00
1:00 PM,93.2,35.6,13,29.92,-9999.0,North,6.9,-,N/A,,Clear,360,2013-03-04 11:00:00
2:00 PM,95.0,35.6,12,29.89,-9999.0,North,5.8,-,N/A,,Clear,360,2013-03-04 12:00:00
3:00 PM,96.8,33.8,11,29.86,-9999.0,NNW,4.6,-,N/A,,Clear,330,2013-03-04 13:00:00
4:00 PM,96.8,33.8,11,29.86,-9999.0,North,8.1,-,N/A,,Clear,350,2013-03-04 14:00:00
5:00 PM,93.2,32.0,11,29.89,-9999.0,North,10.4,-,N/A,,Clear,360,2013-03-04 15:00:00
6:00 PM,89.6,33.8,14,29.92,-9999.0,North,13.8,-,N/A,,Clear,360,2013-03-04 16:00:00
7:00 PM,84.2,32.0,15,29.92,-9999.0,North,11.5,-,N/A,,Clear,360,2013-03-04 17:00:00
8:00 PM,82.4,32.0,16,29.95,-9999.0,North,9.2,-,N/A,,Clear,350,2013-03-04 18:00:00
9:00 PM,78.8,30.2,17,29.98,-9999.0,North,6.9,-,N/A,,Clear,360,2013-03-04 19:00:00
10:00 PM,77.0,32.0,19,29.98,-9999.0,North,9.2,-,N/A,,Clear,350,2013-03-04 20:00:00
11:00 PM,73.4,32.0,22,29.98,-9999.0,North,11.5,-,N/A,,Clear,350,2013-03-04 21:00:00